QPF
0.34 0.38 0.38 0.34 0.31 0.26 0.21 0.15 0.10 0.07 0.05 0.04 0.05 0.05 0.03 0.01 0.01 0.01 0.00 0.00 0.00 0.00 0.00 0.00 0.00 0.00 0.01 0.01 0.02 0.02 0.03 0.04 0.05 0.05 0.06 0.08 0.11 0.14
0.34 0.33 0.32 0.30 0.28 0.25 0.20 0.12 0.06 0.04 0.03 0.02 0.02 0.02 0.01 0.00 0.00 0.00 0.00 0.00 0.00 0.00 0.00 0.00 0.00 0.00 0.00 0.00 0.00 0.01 0.01 0.02 0.03 0.03 0.04 0.05 0.06 0.08
0.35 0.34 0.32 0.27 0.23 0.19 0.13 0.08 0.04 0.02 0.01 0.01 0.01 0.01 0.00 0.00 0.00 0.00 0.00 0.00 0.00 0.00 0.00 0.00 0.00 0.00 0.00 0.00 0.00 0.00 0.00 0.00 0.01 0.01 0.02 0.03 0.04 0.06
0.35 0.32 0.29 0.23 0.20 0.14 0.09 0.05 0.02 0.01 0.01 0.00 0.00 0.00 0.00 0.00 0.00 0.00 0.00 0.00 0.00 0.00 0.00 0.00 0.00 0.00 0.00 0.00 0.00 0.00 0.00 0.01 0.01 0.01 0.01 0.02 0.04 0.06
0.37 0.28 0.22 0.15 0.12 0.09 0.05 0.03 0.01 0.00 0.00 0.00 0.00 0.00 0.00 0.00 0.00 0.00 0.00 0.00 0.00 0.00 0.00 0.00 0.00 0.00 0.00 0.00 0.00 0.00 0.00 0.00 0.01 0.01 0.01 0.02 0.03 0.06
0.24 0.22 0.18 0.11 0.07 0.04 0.02 0.01 0.00 0.00 0.00 0.00 0.00 0.00 0.00 0.00 0.00 0.00 0.00 0.00 0.00 0.00 0.00 0.00 0.00 0.00 0.00 0.00 0.00 0.00 0.00 0.00 0.00 0.01 0.01 0.02 0.04 0.08
0.11 0.12 0.11 0.07 0.04 0.02 0.01 0.00 0.00 0.00 0.00 0.00 0.00 0.00 0.00 0.00 0.00 0.00 0.00 0.00 0.00 0.00 0.00 0.00 0.00 0.01 0.01 0.01 0.01 0.01 0.00 0.00 0.00 0.01 0.01 0.02 0.05 0.10
0.03 0.03 0.02 0.01 0.01 0.01 0.00 0.00 0.00 0.00 0.00 0.00 0.00 0.00 0.00 0.00 0.00 0.00 0.00 0.00 0.00 0.00 0.00 0.01 0.01 0.01 0.02 0.02 0.02 0.02 0.02 0.01 0.01 0.01 0.03 0.05 0.09 0.14
0.01 0.00 0.00 0.00 0.00 0.00 0.00 0.00 0.00 0.00 0.00 0.00 0.00 0.00 0.00 0.00 0.00 0.00 0.00 0.00 0.00 0.00 0.00 0.00 0.01 0.01 0.01 0.02 0.02 0.02 0.02 0.01 0.01 0.02 0.04 0.08 0.13 0.21
0.00 0.00 0.00 0.00 0.00 0.00 0.00 0.00 0.00 0.00 0.00 0.00 0.00 0.00 0.00 0.00 0.00 0.00 0.00 0.00 0.00 0.00 0.00 0.00 0.00 0.00 0.01 0.01 0.02 0.02 0.02 0.01 0.01 0.02 0.05 0.09 0.14 0.21
0.00 0.00 0.00 0.00 0.00 0.00 0.00 0.00 0.00 0.00 0.00 0.00 0.00 0.00 0.00 0.00 0.00 0.00 0.00 0.00 0.00 0.00 0.00 0.00 0.00 0.00 0.01 0.01 0.02 0.02 0.02 0.01 0.01 0.02 0.05 0.09 0.15 0.23
0.00 0.00 0.00 0.00 0.00 0.00 0.00 0.00 0.00 0.00 0.00 0.00 0.00 0.00 0.00 0.00 0.00 0.00 0.00 0.00 0.00 0.00 0.00 0.00 0.00 0.00 0.01 0.02 0.02 0.02 0.02 0.02 0.03 0.04 0.05 0.08 0.14 0.20
0.00 0.00 0.00 0.00 0.00 0.00 0.00 0.00 0.00 0.00 0.00 0.00 0.00 0.00 0.00 0.00 0.00 0.00 0.00 0.00 0.00 0.00 0.00 0.00 0.00 0.01 0.01 0.01 0.03 0.04 0.04 0.04 0.05 0.05 0.07 0.09 0.14 0.18
0.00 0.00 0.00 0.00 0.00 0.00 0.00 0.00 0.00 0.00 0.00 0.00 0.00 0.00 0.00 0.00 0.00 0.00 0.00 0.00 0.00 0.00 0.00 0.00 0.01 0.01 0.01 0.01 0.03 0.05 0.06 0.09 0.10 0.10 0.11 0.11 0.13 0.21
0.00 0.00 0.00 0.00 0.00 0.00 0.00 0.00 0.00 0.00 0.00 0.00 0.00 0.00 0.00 0.00 0.00 0.00 0.00 0.00 0.00 0.00 0.00 0.00 0.00 0.01 0.01 0.01 0.01 0.03 0.06 0.11 0.14 0.13 0.15 0.15 0.14 0.17
0.00 0.00 0.00 0.00 0.00 0.00 0.00 0.00 0.00 0.00 0.00 0.00 0.00 0.00 0.00 0.00 0.00 0.00 0.00 0.00 0.00 0.00 0.00 0.00 0.00 0.00 0.00 0.01 0.01 0.02 0.05 0.08 0.11 0.12 0.16 0.18 0.22 0.23
0.00 0.00 0.00 0.00 0.00 0.00 0.00 0.00 0.00 0.00 0.00 0.00 0.00 0.00 0.00 0.00 0.00 0.00 0.00 0.00 0.00 0.00 0.00 0.00 0.00 0.00 0.00 0.00 0.00 0.01 0.02 0.04 0.06 0.08 0.13 0.15 0.17 0.23
0.00 0.00 0.00 0.00 0.00 0.00 0.00 0.00 0.00 0.00 0.00 0.00 0.00 0.00 0.00 0.00 0.00 0.00 0.00 0.00 0.00 0.00 0.00 0.00 0.00 0.00 0.00 0.00 0.00 0.01 0.01 0.02 0.03 0.05 0.10 0.15 0.16 0.17
0.00 0.00 0.00 0.00 0.00 0.00 0.00 0.00 0.00 0.00 0.00 0.00 0.00 0.00 0.00 0.00 0.00 0.00 0.00 0.00 0.00 0.00 0.00 0.00 0.00 0.00 0.00 0.00 0.00 0.01 0.01 0.01 0.01 0.03 0.06 0.10 0.14 0.16
0.00 0.00 0.00 0.00 0.00 0.00 0.00 0.00 0.00 0.00 0.00 0.00 0.00 0.00 0.00 0.00 0.00 0.00 0.00 0.00 0.00 0.00 0.00 0.00 0.00 0.00 0.00 0.00 0.01 0.01 0.00 0.00 0.00 0.01 0.03 0.05 0.08 0.10
0.00 0.00 0.00 0.00 0.00 0.00 0.00 0.00 0.00 0.00 0.00 0.00 0.00 0.00 0.00 0.00 0.00 0.00 0.00 0.00 0.00 0.00 0.00 0.00 0.00 0.00 0.00 0.01 0.01 0.01 0.01 0.01 0.00 0.00 0.01 0.03 0.06 0.07
0.00 0.00 0.00 0.00 0.00 0.00 0.00 0.00 0.00 0.00 0.00 0.00 0.00 0.00 0.00 0.00 0.00 0.00 0.00 0.00 0.00 0.00 0.00 0.00 0.00 0.00 0.00 0.01 0.01 0.01 0.01 0.01 0.01 0.00 0.00 0.01 0.02 0.03
0.00 0.00 0.00 0.00 0.00 0.00 0.00 0.00 0.00 0.00 0.00 0.00 0.00 0.00 0.00 0.00 0.00 0.00 0.00 0.00 0.00 0.00 0.00 0.00 0.00 0.00 0.00 0.00 0.00 0.01 0.01 0.00 0.01 0.01 0.01 0.00 0.01 0.01
MSLP
1005.85 1006.43 1007.06 1007.68 1008.27 1008.78 1009.20 1009.53 1009.77 1009.93 1010.02 1010.08 1010.10 1010.09 1010.07 1010.03 1009.97 1009.90 1009.83 1009.77 1009.73 1009.72 1009.76 1009.83 1009.94 1010.06 1010.19 1010.30 1010.38 1010.42 1010.41 1010.36 1010.28 1010.19 1010.10 1010.04 1010.01 1010.03
1005.51 1006.07 1006.67 1007.28 1007.87 1008.42 1008.90 1009.31 1009.65 1009.93 1010.15 1010.30 1010.41 1010.46 1010.45 1010.39 1010.29 1010.15 1010.00 1009.84 1009.72 1009.64 1009.62 1009.65 1009.75 1009.88 1010.03 1010.17 1010.28 1010.35 1010.37 1010.33 1010.24 1010.12 1009.98 1009.85 1009.74 1009.67
1005.53 1006.03 1006.58 1007.14 1007.70 1008.24 1008.74 1009.20 1009.62 1009.99 1010.31 1010.56 1010.76 1010.87 1010.90 1010.85 1010.72 1010.53 1010.30 1010.06 1009.85 1009.68 1009.59 1009.57 1009.62 1009.73 1009.88 1010.04 1010.17 1010.26 1010.29 1010.25 1010.16 1010.00 1009.81 1009.61 1009.41 1009.24
1005.88 1006.32 1006.79 1007.29 1007.78 1008.28 1008.77 1009.24 1009.70 1010.14 1010.53 1010.88 1011.15 1011.33 1011.40 1011.37 1011.23 1011.01 1010.72 1010.41 1010.12 1009.87 1009.69 1009.60 1009.59 1009.66 1009.77 1009.91 1010.03 1010.12 1010.15 1010.10 1009.98 1009.78 1009.54 1009.25 1008.96 1008.68
1006.50 1006.87 1007.27 1007.69 1008.11 1008.55 1009.00 1009.45 1009.92 1010.38 1010.82 1011.22 1011.55 1011.79 1011.91 1011.90 1011.77 1011.53 1011.22 1010.86 1010.50 1010.17 1009.91 1009.74 1009.66 1009.66 1009.71 1009.80 1009.88 1009.93 1009.93 1009.84 1009.68 1009.43 1009.11 1008.74 1008.34 1007.95
1007.29 1007.60 1007.94 1008.28 1008.63 1008.99 1009.38 1009.79 1010.23 1010.69 1011.14 1011.56 1011.92 1012.19 1012.35 1012.37 1012.26 1012.03 1011.71 1011.33 1010.93 1010.55 1010.22 1009.97 1009.81 1009.72 1009.70 1009.71 1009.73 1009.72 1009.65 1009.51 1009.28 1008.96 1008.56 1008.09 1007.58 1007.08
1008.12 1008.40 1008.68 1008.95 1009.23 1009.53 1009.85 1010.20 1010.59 1011.00 1011.43 1011.84 1012.20 1012.49 1012.66 1012.72 1012.64 1012.44 1012.13 1011.75 1011.34 1010.94 1010.57 1010.26 1010.02 1009.85 1009.74 1009.67 1009.60 1009.51 1009.36 1009.14 1008.83 1008.43 1007.94 1007.38 1006.77 1006.15
1008.90 1009.15 1009.39 1009.62 1009.84 1010.08 1010.33 1010.61 1010.93 1011.28 1011.65 1012.02 1012.36 1012.63 1012.82 1012.89 1012.85 1012.69 1012.43 1012.08 1011.69 1011.29 1010.91 1010.56 1010.27 1010.03 1009.83 1009.67 1009.51 1009.33 1009.10 1008.80 1008.42 1007.93 1007.36 1006.71 1006.01 1005.30
1009.55 1009.78 1010.00 1010.20 1010.39 1010.57 1010.77 1010.98 1011.23 1011.50 1011.80 1012.10 1012.39 1012.64 1012.82 1012.91 1012.90 1012.79 1012.59 1012.30 1011.96 1011.59 1011.22 1010.86 1010.53 1010.24 1009.98 1009.74 1009.50 1009.23 1008.93 1008.55 1008.10 1007.55 1006.91 1006.20 1005.43 1004.66
1010.03 1010.25 1010.47 1010.66 1010.83 1010.99 1011.14 1011.30 1011.47 1011.67 1011.88 1012.11 1012.34 1012.55 1012.72 1012.82 1012.85 1012.79 1012.65 1012.43 1012.16 1011.84 1011.50 1011.15 1010.81 1010.48 1010.17 1009.87 1009.56 1009.23 1008.86 1008.43 1007.93 1007.34 1006.67 1005.92 1005.13 1004.32
1010.35 1010.59 1010.81 1011.01 1011.19 1011.33 1011.46 1011.57 1011.69 1011.82 1011.97 1012.13 1012.30 1012.47 1012.61 1012.72 1012.77 1012.76 1012.68 1012.54 1012.33 1012.07 1011.76 1011.44 1011.10 1010.75 1010.40 1010.06 1009.70 1009.32 1008.91 1008.44 1007.92 1007.32 1006.65 1005.90 1005.12 1004.32
1010.55 1010.81 1011.06 1011.29 1011.48 1011.63 1011.75 1011.85 1011.94 1012.02 1012.12 1012.22 1012.34 1012.47 1012.59 1012.69 1012.77 1012.79 1012.76 1012.67 1012.52 1012.30 1012.04 1011.73 1011.39 1011.03 1010.66 1010.28 1009.89 1009.47 1009.04 1008.57 1008.04 1007.46 1006.82 1006.12 1005.38 1004.62
1010.69 1010.98 1011.26 1011.51 1011.74 1011.91 1012.05 1012.15 1012.23 1012.30 1012.36 1012.44 1012.52 1012.62 1012.72 1012.81 1012.89 1012.93 1012.93 1012.88 1012.75 1012.57 1012.33 1012.03 1011.69 1011.32 1010.92 1010.51 1010.10 1009.67 1009.22 1008.76 1008.25 1007.71 1007.12 1006.49 1005.82 1005.14
1010.80 1011.11 1011.43 1011.72 1011.98 1012.19 1012.36 1012.49 1012.58 1012.66 1012.72 1012.78 1012.85 1012.92 1013.01 1013.09 1013.16 1013.20 1013.21 1013.16 1013.05 1012.87 1012.63 1012.33 1011.97 1011.59 1011.17 1010.74 1010.30 1009.86 1009.42 1008.97 1008.50 1008.01 1007.49 1006.93 1006.35 1005.76
1010.87 1011.22 1011.56 1011.89 1012.19 1012.44 1012.66 1012.82 1012.95 1013.05 1013.13 1013.20 1013.27 1013.34 1013.41 1013.48 1013.54 1013.56 1013.55 1013.49 1013.37 1013.18 1012.92 1012.61 1012.24 1011.83 1011.39 1010.95 1010.50 1010.05 1009.62 1009.19 1008.76 1008.32 1007.86 1007.38 1006.89 1006.38
1010.91 1011.28 1011.64 1012.00 1012.33 1012.63 1012.88 1013.10 1013.27 1013.42 1013.53 1013.63 1013.71 1013.79 1013.86 1013.91 1013.94 1013.95 1013.91 1013.83 1013.68 1013.47 1013.19 1012.86 1012.47 1012.05 1011.60 1011.14 1010.69 1010.25 1009.82 1009.41 1009.01 1008.62 1008.22 1007.81 1007.39 1006.96
1010.87 1011.25 1011.62 1011.99 1012.35 1012.68 1012.98 1013.24 1013.47 1013.66 1013.83 1013.96 1014.07 1014.17 1014.24 1014.28 1014.30 1014.28 1014.22 1014.11 1013.94 1013.71 1013.42 1013.08 1012.69 1012.26 1011.81 1011.35 1010.90 1010.47 1010.06 1009.66 1009.29 1008.93 1008.57 1008.21 1007.84 1007.46
1010.72 1011.10 1011.47 1011.84 1012.21 1012.56 1012.89 1013.20 1013.47 1013.72 1013.93 1014.12 1014.26 1014.38 1014.47 1014.52 1014.53 1014.50 1014.43 1014.31 1014.13 1013.90 1013.61 1013.27 1012.90 1012.48 1012.05 1011.62 1011.18 1010.76 1010.37 1009.99 1009.63 1009.29 1008.96 1008.62 1008.28 1007.93
1010.45 1010.81 1011.17 1011.53 1011.89 1012.25 1012.60 1012.94 1013.26 1013.55 1013.82 1014.05 1014.24 1014.39 1014.50 1014.57 1014.60 1014.58 1014.52 1014.40 1014.24 1014.03 1013.77 1013.46 1013.12 1012.75 1012.36 1011.95 1011.55 1011.15 1010.78 1010.41 1010.07 1009.73 1009.41 1009.08 1008.75 1008.41
1010.06 1010.39 1010.73 1011.06 1011.41 1011.77 1012.13 1012.49 1012.84 1013.17 1013.48 1013.75 1013.99 1014.18 1014.33 1014.44 1014.50 1014.51 1014.48 1014.40 1014.28 1014.12 1013.91 1013.66 1013.38 1013.07 1012.73 1012.37 1012.01 1011.64 1011.28 1010.94 1010.60 1010.27 1009.95 1009.62 1009.29 1008.95
1009.57 1009.87 1010.18 1010.49 1010.81 1011.15 1011.51 1011.88 1012.25 1012.61 1012.95 1013.27 1013.55 1013.79 1013.99 1014.14 1014.25 1014.32 1014.34 1014.33 1014.27 1014.18 1014.05 1013.88 1013.67 1013.42 1013.15 1012.85 1012.53 1012.20 1011.86 1011.53 1011.20 1010.87 1010.55 1010.22 1009.89 1009.55
1009.00 1009.28 1009.55 1009.83 1010.13 1010.45 1010.79 1011.16 1011.54 1011.92 1012.29 1012.64 1012.97 1013.26 1013.51 1013.72 1013.90 1014.03 1014.13 1014.19 1014.22 1014.21 1014.17 1014.08 1013.95 1013.78 1013.58 1013.33 1013.06 1012.76 1012.45 1012.13 1011.81 1011.49 1011.18 1010.86 1010.54 1010.21
1008.38 1008.64 1008.89 1009.14 1009.40 1009.70 1010.02 1010.38 1010.76 1011.15 1011.54 1011.92 1012.28 1012.62 1012.93 1013.21 1013.45 1013.67 1013.85 1014.00 1014.12 1014.20 1014.25 1014.25 1014.20 1014.10 1013.95 1013.76 1013.52 1013.26 1012.97 1012.67 1012.37 1012.07 1011.77 1011.47 1011.17 1010.87
Thickness
5694 5693 5693 5693 5692 5690 5688 5686 5680 5674 5673 5678 5681 5686 5688 5690 5691 5691 5692 5693 5695 5696 5696 5696 5696 5695 5695 5694 5694 5693 5693 5693 5693 5694 5694 5695 5696 5697
5686 5684 5684 5684 5684 5683 5682 5681 5679 5674 5668 5670 5672 5676 5679 5682 5682 5683 5684 5686 5687 5688 5689 5689 5688 5688 5687 5686 5686 5686 5686 5686 5686 5687 5688 5689 5690 5691
5677 5675 5674 5675 5673 5673 5673 5672 5670 5670 5663 5661 5663 5666 5668 5669 5672 5674 5676 5677 5678 5679 5680 5680 5680 5679 5678 5678 5678 5678 5678 5678 5679 5680 5681 5683 5684 5686
5664 5664 5662 5662 5661 5662 5662 5661 5661 5661 5658 5652 5652 5654 5657 5659 5662 5664 5666 5668 5669 5670 5671 5671 5671 5670 5670 5669 5669 5670 5670 5670 5671 5673 5674 5676 5678 5680
5650 5649 5649 5650 5649 5650 5650 5651 5652 5652 5650 5645 5642 5643 5646 5649 5651 5653 5656 5657 5660 5661 5661 5661 5661 5661 5661 5660 5660 5661 5661 5662 5663 5664 5667 5670 5672 5674
5636 5636 5637 5638 5638 5639 5640 5641 5642 5640 5638 5636 5634 5634 5635 5638 5639 5639 5641 5644 5647 5649 5650 5650 5650 5650 5650 5650 5650 5650 5651 5652 5653 5655 5658 5661 5665 5668
5625 5625 5626 5627 5629 5631 5631 5631 5633 5631 5628 5626 5624 5624 5624 5626 5626 5627 5629 5631 5634 5636 5637 5638 5639 5639 5638 5638 5638 5638 5639 5640 5642 5645 5648 5652 5656 5661
5614 5615 5618 5618 5620 5621 5622 5624 5626 5623 5620 5618 5616 5616 5616 5617 5618 5619 5618 5619 5619 5623 5623 5624 5626 5625 5625 5625 5625 5625 5626 5627 5630 5633 5637 5641 5647 5652
5607 5608 5609 5608 5610 5612 5613 5615 5615 5616 5616 5614 5612 5611 5611 5610 5611 5611 5610 5609 5609 5611 5610 5610 5611 5610 5612 5611 5611 5611 5612 5614 5616 5620 5624 5629 5635 5641
5598 5598 5598 5599 5603 5604 5605 5605 5606 5607 5608 5609 5608 5607 5606 5605 5605 5604 5602 5601 5601 5600 5598 5594 5596 5596 5598 5598 5597 5597 5598 5599 5602 5606 5610 5616 5622 5629
5590 5591 5593 5593 5596 5598 5598 5597 5598 5599 5602 5603 5604 5603 5603 5602 5600 5597 5593 5589 5586 5586 5585 5581 5581 5581 5582 5584 5585 5584 5585 5587 5589 5593 5597 5603 5609 5616
5583 5585 5587 5588 5590 5592 5591 5591 5590 5591 5594 5596 5596 5596 5594 5593 5592 5589 5584 5579 5575 5572 5573 5570 5568 5566 5567 5570 5572 5573 5574 5576 5578 5582 5585 5590 5596 5603
5580 5580 5581 5584 5585 5587 5587 5587 5587 5587 5587 5587 5586 5585 5584 5583 5582 5580 5577 5573 5568 5563 5563 5560 5557 5555 5553 5554 5558 5561 5562 5564 5567 5571 5575 5580 5585 5591
5580 5579 5579 5581 5582 5583 5583 5584 5584 5583 5581 5579 5577 5574 5573 5572 5572 5571 5569 5566 5562 5558 5555 5553 5549 5546 5543 5542 5544 5548 5552 5554 5557 5561 5566 5571 5575 5580
5581 5580 5579 5579 5579 5579 5580 5580 5579 5577 5574 5571 5568 5566 5565 5565 5564 5563 5561 5558 5555 5552 5548 5545 5541 5538 5536 5533 5533 5536 5539 5544 5547 5551 5557 5562 5566 5571
5578 5577 5577 5576 5575 5575 5575 5574 5573 5570 5568 5564 5562 5560 5560 5558 5555 5552 5549 5546 5542 5540 5540 5538 5535 5532 5529 5527 5525 5526 5529 5532 5537 5542 5547 5552 5557 5562
5574 5571 5570 5569 5569 5569 5568 5568 5566 5564 5561 5559 5557 5555 5553 5551 5547 5544 5540 5537 5532 5528 5527 5528 5528 5526 5523 5520 5518 5518 5520 5523 5528 5532 5538 5542 5547 5551
5572 5568 5567 5566 5566 5565 5564 5562 5561 5559 5557 5555 5552 5549 5546 5544 5540 5537 5534 5529 5525 5522 5520 5518 5516 5515 5514 5514 5512 5511 5513 5515 5519 5524 5528 5532 5536 5541
5569 5567 5566 5565 5564 5562 5561 5559 5557 5555 5553 5551 5548 5545 5542 5539 5535 5531 5528 5524 5520 5516 5513 5511 5507 5504 5500 5500 5505 5506 5504 5506 5510 5514 5517 5521 5524 5529
5567 5566 5565 5564 5563 5561 5560 5557 5555 5552 5549 5547 5544 5541 5538 5534 5531 5527 5522 5519 5514 5510 5507 5504 5501 5497 5494 5493 5493 5497 5499 5498 5500 5503 5507 5511 5515 5519
5565 5565 5565 5563 5563 5561 5559 5557 5554 5551 5548 5544 5541 5538 5534 5531 5527 5523 5519 5516 5510 5505 5501 5497 5495 5495 5493 5490 5487 5487 5490 5492 5492 5493 5496 5500 5504 5509
5567 5565 5564 5563 5562 5560 5558 5555 5552 5548 5545 5542 5538 5535 5532 5528 5524 5520 5515 5510 5505 5501 5497 5494 5492 5490 5485 5480 5477 5477 5479 5483 5486 5487 5489 5490 5491 5495
5567 5566 5564 5563 5561 5559 5556 5554 5551 5547 5544 5540 5537 5533 5529 5526 5521 5517 5512 5507 5502 5497 5493 5489 5485 5481 5477 5473 5470 5470 5472 5472 5474 5476 5479 5482 5484 5487